WetterOnline ( https://www.wetteronline.de )

Wetter aktuell München

Aktuelles Wetter: München/Stadt (535m)

6-stündlich | Neueste Meldungen
Ortszeit Temperatur Wetter
Fr, 06.12. 1:00 -3.3° C Nebel
Do, 05.12. 19:00 -1.9° C Nebel
Do, 05.12. 13:00 -0.7° C fast wolkenlos
Do, 05.12. 7:00 -4.2° C bedeckt
Do, 05.12. 1:00 -2.1° C wolkig
Mi, 04.12. 19:00 0.4° C fast wolkenlos
Mi, 04.12. 13:00 2.0° C wolkenlos
Mi, 04.12. 7:00 -2.4° C wolkenlos
Ortszeit Temperatur Wetter
Fr, 06.12. 1:00 -3.3° C Nebel
Fr, 06.12. 0:40 -3.2° C Nebel
Fr, 06.12. 0:30 -3.3° C Nebel
Fr, 06.12. 0:20 -3.3° C Nebel
Fr, 06.12. 0:10 -3.3° C Nebel
Fr, 06.12. 0:00 -3.1° C Nebel
Do, 05.12. 23:50 -3.1° C Nebel
Do, 05.12. 23:30 -2.9° C Nebel
Do, 05.12. 23:00 -2.7° C Nebel
Do, 05.12. 22:30 -2.7° C Nebel
Do, 05.12. 22:00 -2.6° C Nebel
Ortszeit Relative Feuchte Sichtweite
Fr, 06.12. 1:00 94% 0.2 km
Do, 05.12. 19:00 95% 0.4 km
Do, 05.12. 13:00 77% 7 km
Do, 05.12. 7:00 93% 3.5 km
Do, 05.12. 1:00 91% 17 km
Mi, 04.12. 19:00 80% 30 km
Mi, 04.12. 13:00 62% 25 km
Mi, 04.12. 7:00 84% 23 km
Ortszeit Relative Feuchte Sichtweite
Fr, 06.12. 1:00 94% 0.2 km
Fr, 06.12. 0:40 96% -
Fr, 06.12. 0:30 98% 100 m
Fr, 06.12. 0:20 98% -
Fr, 06.12. 0:10 96% -
Fr, 06.12. 0:00 97% 100 m
Do, 05.12. 23:50 97% -
Do, 05.12. 23:30 96% 100 m
Do, 05.12. 23:00 96% 100 m
Do, 05.12. 22:30 96% 100 m
Do, 05.12. 22:00 97% 100 m
Ortszeit Niederschlagsmenge Niederschlagsart
Fr, 06.12. 1:00 0.1 l/m2 in 6 Std. Schnee, Sprühregen
Do, 05.12. 19:00 0.1 l/m2 in 12 Std. -
Do, 05.12. 13:00 0.1 l/m2 in 6 Std. Schnee
Do, 05.12. 7:00 0.0 l/m2 in 12 Std. -
Do, 05.12. 1:00 0.0 l/m2 in 6 Std. -
Mi, 04.12. 19:00 0.0 l/m2 in 12 Std. -
Mi, 04.12. 13:00 0.0 l/m2 in 6 Std. -
Mi, 04.12. 7:00 0.0 l/m2 in 12 Std. -
Ortszeit Niederschlagsmenge Niederschlagsart
Fr, 06.12. 1:00 0.1 l/m2 in 1 Std. Schnee, Sprühregen
Fr, 06.12. 0:40 keine Meldung -
Fr, 06.12. 0:30 0.0 l/m2 in 1 Std. -
Fr, 06.12. 0:20 keine Meldung -
Fr, 06.12. 0:10 keine Meldung -
Fr, 06.12. 0:00 0.0 l/m2 in 1 Std. -
Do, 05.12. 23:50 keine Meldung -
Do, 05.12. 23:30 0.0 l/m2 in 1 Std. -
Do, 05.12. 23:00 0.0 l/m2 in 1 Std. -
Do, 05.12. 22:30 0.0 l/m2 in 1 Std. -
Do, 05.12. 22:00 0.0 l/m2 in 1 Std. -
Ortszeit Stärke Spitze Richtung
km/h Bft. km/h Grad Sektor
Fr, 06.12. 1:00 4 1 11 320° NW
Do, 05.12. 19:00 4 1 14 320° NW
Do, 05.12. 13:00 6 1 15 360° N
Do, 05.12. 7:00 4 1 14 280° W
Do, 05.12. 1:00 4 1 14 240° SW
Mi, 04.12. 19:00 9 2 15 100° O
Mi, 04.12. 13:00 9 2 17 80° O
Mi, 04.12. 7:00 9 2 19 100° O
Ortszeit Stärke Spitze Richtung
km/h Bft. km/h Grad Sektor
Fr, 06.12. 1:00 4 1 11 320° NW
Fr, 06.12. 0:40 4 1 - 290° W
Fr, 06.12. 0:30 6 1 9 290° W
Fr, 06.12. 0:20 6 1 - 290° W
Fr, 06.12. 0:10 6 1 - 260° W
Fr, 06.12. 0:00 4 1 7 280° W
Do, 05.12. 23:50 4 1 - 280° W
Do, 05.12. 23:30 6 1 7 300° NW
Do, 05.12. 23:00 4 1 7 260° W
Do, 05.12. 22:30 0 0 7 - -
Do, 05.12. 22:00 4 1 7 340° N
Ortszeit Untergrenze Bedeckung Gattung
total tief tief mittel hoch
Fr, 06.12. 1:00 <30 m 8/8 0/8 - - -
Do, 05.12. 19:00 <30 m 8/8 0/8 - - -
Do, 05.12. 13:00 150 m 1/8 1/8 - - -
Do, 05.12. 7:00 30 m 8/8 8/8 - - -
Do, 05.12. 1:00 10500 m 8/8 0/8 - - -
Mi, 04.12. 19:00 10500 m 1/8 0/8 - - -
Mi, 04.12. 13:00 - 0/8 0/8 - - -
Mi, 04.12. 7:00 - 0/8 0/8 - - -
Ortszeit Bedeckungsgrad in Achtel und Wolkenuntergrenze
Fr, 06.12. 1:00 8(<30m)
Fr, 06.12. 0:40 8(<30m)
Fr, 06.12. 0:30 8(<30m)
Fr, 06.12. 0:20 8(<30m)
Fr, 06.12. 0:10 8(<30m)
Fr, 06.12. 0:00 8(<30m)
Do, 05.12. 23:50 8(<30m)
Do, 05.12. 23:30 8(<30m)
Do, 05.12. 23:00 8(<30m)
Do, 05.12. 22:30 8(<30m)
Do, 05.12. 22:00 8(<30m)
Ortszeit Luftdruck NN (hPa) Tendenz (hPa in 3 Std.)
Fr, 06.12. 1:00 1025 - 0,9
Do, 05.12. 19:00 1026 + 0,8
Do, 05.12. 13:00 1025 - 0,6
Do, 05.12. 7:00 1025 + 1,0
Do, 05.12. 1:00 1023 + 0,1
Mi, 04.12. 19:00 1022 - 0,4
Mi, 04.12. 13:00 1023 - 1,3
Mi, 04.12. 7:00 1025 - 0,9
Ortszeit Luftdruck NN (hPa) Tendenz (hPa in 3 Std.)
Fr, 06.12. 1:00 1025 - 0,9
Fr, 06.12. 0:40 1025 keine Meldung
Fr, 06.12. 0:30 1025 - 1,0
Fr, 06.12. 0:20 1025 keine Meldung
Fr, 06.12. 0:10 1025 keine Meldung
Fr, 06.12. 0:00 1025 - 0,8
Do, 05.12. 23:50 1025 keine Meldung
Do, 05.12. 23:30 1026 - 0,7
Do, 05.12. 23:00 1025 - 0,6
Do, 05.12. 22:30 1026 - 0,2
Do, 05.12. 22:00 1026 - 0,1
Ortszeit Schneehöhe (cm)
Fr, 06.12. 1:00 0
Do, 05.12. 19:00 0
Do, 05.12. 13:00 0
Do, 05.12. 7:00 0
Do, 05.12. 1:00 0
Mi, 04.12. 19:00 0
Mi, 04.12. 13:00 0
Mi, 04.12. 7:00 0
Ortszeit Schneehöhe (cm)
Fr, 06.12. 1:00 0
Fr, 06.12. 0:40 0
Fr, 06.12. 0:30 0
Fr, 06.12. 0:20 0
Fr, 06.12. 0:10 0
Fr, 06.12. 0:00 0
Do, 05.12. 23:50 0
Do, 05.12. 23:30 0
Do, 05.12. 23:00 0
Do, 05.12. 22:30 0
Do, 05.12. 22:00 0
Link zu dieser Seite / Seite empfehlen

Das Wetter in ...